Date String (YYYY-MM-DD hh:mm:ss) UTC,Instrument flags,absolute air pressure of the measurement (hPa),sample flow rate (lpm),inlet stack bypass flow (lpm),air temperature of the measurement (°C),ambient temperature measured by the external sensor (°C),aerosol sample conditioner tube jacket temperature (°C),OPC LED temperature (°C),internal box temperature (°C),relative humidity of the measurement (%),span deviation,mass concentration of particles derived from Lorenz-Mie calculation of OPC scattering (μg/m³),mass concentration of particles derived from Lorenz-Mie calculation of OPC scattering (μg/m³),mass concentration of particles derived from Lorenz-Mie calculation of OPC scattering (μg/m³)
DateTimeUTC,F1_M11,P_M11,Q1_M11,Q2_M11,T1_M11,T2_M11,T3_M11,T4_M11,T5_M11,U1_M11,ZSPAN_M11,X0_M11,X2_M11,X1_M11
2024-01-01 00:00:00,SystemResetWarning,0831.2,4.99,000.00,024.9,024.1,000.0,033.1,026.2,12.2,0000.0,0012.32,0005.82,0005.15
2024-01-01 00:01:00,SystemResetWarning,0831.3,5.01,000.00,024.9,024.1,000.0,033.1,026.1,12.2,0000.0,0012.50,0005.83,0005.15
2024-01-01 00:02:00,SystemResetWarning,0831.3,5.01,000.00,024.9,024.1,000.0,033.1,026.1,12.2,0000.0,0012.95,0005.84,0005.15
2024-01-01 00:03:00,SystemResetWarning,0831.3,4.99,000.00,024.9,024.1,000.0,033.1,026.1,12.2,0000.0,0013.08,0005.88,0005.16
2024-01-01 00:04:00,SystemResetWarning,0831.3,4.99,000.00,024.9,024.1,000.0,033.1,026.2,12.2,0000.0,0013.11,0005.89,0005.16
2024-01-01 00:05:00,SystemResetWarning,0831.3,4.99,000.00,024.9,024.1,000.0,033.1,026.2,12.2,0000.0,0013.62,0005.97,0005.16
2024-01-01 00:06:00,SystemResetWarning,0831.3,5.00,000.00,024.9,024.1,000.0,033.1,026.2,12.2,0000.0,0013.86,0006.00,0005.15
2024-01-01 00:07:00,SystemResetWarning,0831.3,5.00,000.00,024.9,024.1,000.0,033.1,026.2,12.2,0000.0,0013.28,0005.99,0005.15
2024-01-01 00:08:00,SystemResetWarning,0831.3,5.01,000.00,024.9,024.1,000.0,033.1,026.2,12.2,0000.0,0012.85,0006.02,0005.15
2024-01-01 00:09:00,SystemResetWarning,0831.3,5.01,000.00,024.8,024.1,000.0,033.1,026.2,12.2,0000.0,0012.63,0006.03,0005.15
2024-01-01 00:10:00,SystemResetWarning,0831.3,4.98,000.00,024.8,024.1,000.0,033.1,026.2,12.2,0000.0,0013.03,0006.04,0005.15
2024-01-01 00:11:00,SystemResetWarning,0831.3,5.00,000.00,024.8,024.1,000.0,033.1,026.2,12.2,0000.0,0013.95,0006.01,0005.15
2024-01-01 00:12:00,SystemResetWarning,0831.3,5.01,000.00,024.8,024.1,000.0,033.1,026.2,12.2,0000.0,0014.17,0006.04,0005.14
2024-01-01 00:13:00,SystemResetWarning,0831.3,5.01,000.00,024.8,024.1,000.0,033.1,026.2,12.2,0000.0,0013.46,0006.01,0005.13
2024-01-01 00:14:00,SystemResetWarning,0831.3,5.00,000.00,024.9,024.1,000.0,033.1,026.2,12.2,0000.0,0012.43,0005.95,0005.11
2024-01-01 00:15:00,SystemResetWarning,0831.3,4.99,000.00,024.9,024.1,000.0,033.1,026.2,12.2,0000.0,0011.75,0005.88,0005.09
2024-01-01 00:16:00,SystemResetWarning,0831.3,4.99,000.00,024.9,024.1,000.0,033.1,026.2,12.2,0000.0,0011.39,0005.82,0005.09
2024-01-01 00:17:00,SystemResetWarning,0831.3,5.00,000.00,024.9,024.1,000.0,033.1,026.2,12.2,0000.0,0011.68,0005.81,0005.09
2024-01-01 00:18:00,SystemResetWarning,0831.3,5.00,000.00,024.9,024.1,000.0,033.1,026.2,12.2,0000.0,0013.04,0005.80,0005.09
2024-01-01 00:19:00,SystemResetWarning,0831.3,5.00,000.00,024.9,024.1,000.0,033.2,026.2,12.2,0000.0,0013.22,0005.81,0005.09
2024-01-01 00:20:00,SystemResetWarning,0831.3,5.01,000.00,024.9,024.1,000.0,033.2,026.2,12.2,0000.0,0013.21,0005.76,0005.07
2024-01-01 00:21:00,SystemResetWarning,0831.3,5.00,000.00,024.9,024.1,000.0,033.2,026.2,12.2,0000.0,0012.95,0005.71,0005.06
2024-01-01 00:22:00,SystemResetWarning,0831.3,5.00,000.00,024.9,024.1,000.0,033.2,026.2,12.1,0000.0,0011.83,0005.70,0005.05
2024-01-01 00:23:00,SystemResetWarning,0831.3,4.99,000.00,024.9,024.1,000.0,033.2,026.2,12.1,0000.0,0011.44,0005.67,0005.05
2024-01-01 00:24:00,SystemResetWarning,0831.3,5.00,000.00,024.9,024.1,000.0,033.2,026.2,12.1,0000.0,0011.51,0005.70,0005.06
2024-01-01 00:25:00,SystemResetWarning,0831.4,5.00,000.00,024.9,024.1,000.0,033.2,026.2,12.1,0000.0,0011.68,0005.74,0005.08
2024-01-01 00:26:00,SystemResetWarning,0831.4,4.99,000.00,024.9,024.1,000.0,033.2,026.2,12.1,0000.0,0011.77,0005.77,0005.10
2024-01-01 00:27:00,SystemResetWarning,0831.4,5.02,000.00,024.9,024.1,000.0,033.2,026.2,12.1,0000.0,0011.81,0005.80,0005.10
2024-01-01 00:28:00,SystemResetWarning,0831.4,5.00,000.00,024.9,024.1,000.0,033.2,026.2,12.1,0000.0,0011.51,0005.79,0005.11
2024-01-01 00:29:00,SystemResetWarning,0831.3,4.99,000.00,024.9,024.1,000.0,033.2,026.2,12.1,0000.0,0010.59,0005.79,0005.12
2024-01-01 00:30:00,SystemResetWarning,0831.3,4.99,000.00,024.9,024.1,000.0,033.2,026.2,12.1,0000.0,0010.76,0005.79,0005.13
2024-01-01 00:31:00,SystemResetWarning,0831.3,5.00,000.00,024.9,024.1,000.0,033.2,026.2,12.2,0000.0,0011.03,0005.85,0005.15
2024-01-01 00:32:00,SystemResetWarning,0831.4,5.01,000.00,024.9,024.1,000.0,033.2,026.2,12.2,0000.0,0011.37,0005.91,0005.18
2024-01-01 00:33:00,SystemResetWarning,0831.4,5.01,000.00,024.9,024.1,000.0,033.2,026.2,12.2,0000.0,0011.68,0005.92,0005.20
2024-01-01 00:34:00,SystemResetWarning,0831.4,5.00,000.00,024.9,024.1,000.0,033.2,026.3,12.2,0000.0,0012.24,0005.97,0005.23
2024-01-01 00:35:00,SystemResetWarning,0831.4,4.99,000.00,024.9,024.1,000.0,033.2,026.3,12.2,0000.0,0012.22,0005.96,0005.25
2024-01-01 00:36:00,SystemResetWarning,0831.4,5.00,000.00,024.9,024.1,000.0,033.2,026.3,12.1,0000.0,0012.36,0006.02,0005.29
2024-01-01 00:37:00,SystemResetWarning,0831.4,5.00,000.00,024.9,024.1,000.0,033.2,026.2,12.1,0000.0,0013.44,0006.06,0005.32
2024-01-01 00:38:00,SystemResetWarning,0831.4,5.00,000.00,024.9,024.1,000.0,033.2,026.2,12.1,0000.0,0014.04,0006.07,0005.36
2024-01-01 00:39:00,SystemResetWarning,0831.5,5.00,000.00,024.9,024.1,000.0,033.2,026.2,12.1,0000.0,0014.29,0006.10,0005.40
2024-01-01 00:40:00,SystemResetWarning,0831.4,5.00,000.00,024.9,024.1,000.0,033.2,026.2,12.1,0000.0,0014.62,0006.11,0005.41
2024-01-01 00:41:00,SystemResetWarning,0831.4,5.01,000.00,024.9,024.1,000.0,033.2,026.2,12.1,0000.0,0014.53,0006.13,0005.44
2024-01-01 00:42:00,SystemResetWarning,0831.4,5.00,000.00,024.9,024.1,000.0,033.2,026.2,12.1,0000.0,0014.96,0006.11,0005.45
2024-01-01 00:43:00,SystemResetWarning,0831.4,5.00,000.00,024.9,024.1,000.0,033.2,026.2,12.1,0000.0,0015.07,0006.11,0005.46
2024-01-01 00:44:00,SystemResetWarning,0831.5,5.00,000.00,024.9,024.0,000.0,033.2,026.2,12.1,0000.0,0015.04,0006.13,0005.48
2024-01-01 00:45:00,SystemResetWarning,0831.4,5.00,000.00,024.9,024.0,000.0,033.2,026.2,12.1,0000.0,0014.52,0006.11,0005.47
2024-01-01 00:46:00,SystemResetWarning,0831.5,5.00,000.00,024.9,024.0,000.0,033.2,026.2,12.1,0000.0,0014.37,0006.11,0005.46
2024-01-01 00:47:00,SystemResetWarning,0831.5,5.01,000.00,024.9,024.0,000.0,033.2,026.2,12.1,0000.0,0014.77,0006.12,0005.46
2024-01-01 00:48:00,SystemResetWarning,0831.5,5.00,000.00,024.9,024.0,000.0,033.2,026.2,12.1,0000.0,0015.03,0006.10,0005.45
2024-01-01 00:49:00,SystemResetWarning,0831.5,4.99,000.00,024.9,024.0,000.0,033.2,026.2,12.1,0000.0,0014.02,0006.10,0005.44
2024-01-01 00:50:00,SystemResetWarning,0831.5,4.99,000.00,024.9,024.0,000.0,033.2,026.2,12.1,0000.0,0014.22,0006.08,0005.42
2024-01-01 00:51:00,SystemResetWarning,0831.5,5.01,000.00,024.9,024.0,000.0,033.2,026.2,12.0,0000.0,0013.21,0006.07,0005.41
2024-01-01 00:52:00,SystemResetWarning,0831.5,5.01,000.00,024.9,024.0,000.0,033.2,026.2,12.0,0000.0,0013.15,0006.10,0005.42
2024-01-01 00:53:00,SystemResetWarning,0831.5,5.01,000.00,024.9,024.0,000.0,033.2,026.2,12.1,0000.0,0012.03,0006.12,0005.43
2024-01-01 00:54:00,SystemResetWarning,0831.5,4.99,000.00,024.9,023.9,000.0,033.2,026.2,12.1,0000.0,0011.99,0006.13,0005.44
2024-01-01 00:55:00,SystemResetWarning,0831.5,4.99,000.00,024.8,023.9,000.0,033.2,026.2,12.1,0000.0,0011.54,0006.14,0005.44
2024-01-01 00:56:00,SystemResetWarning,0831.6,5.01,000.00,024.8,023.9,000.0,033.1,026.2,12.0,0000.0,0012.35,0006.15,0005.45
2024-01-01 00:57:00,SystemResetWarning,0831.6,5.00,000.00,024.8,023.9,000.0,033.1,026.1,12.0,0000.0,0013.16,0006.16,0005.46
2024-01-01 00:58:00,SystemResetWarning,0831.6,5.01,000.00,024.8,023.9,000.0,033.1,026.2,12.0,0000.0,0013.46,0006.13,0005.47
2024-01-01 00:59:00,SystemResetWarning,0831.6,5.00,000.00,024.8,023.9,000.0,033.1,026.2,12.0,0000.0,0012.61,0006.08,0005.45
